User: anonymous   Login
Location: Camp at the Woods
(43.2055°N, 93.0905°W)
Time: 12:56:18
(UTC+00:00)
Language:

CZ-4C R/B - Orbit

View from above orbital plane
View from above orbital plane
View from above satellite
View from above satellite

Ground track
Ground track

The orbit data is extracted from the following two-line orbital elements,

1 36416U 10009D   24112.90079480  .00002828  00000-0  78114-3 0  9991
2 36416  63.4057  16.8520 0630075 358.6818   1.2533 13.70683510706707
Epoch (UTC): 21 April 2024 21:37:08
Eccentricity: 0.0630075
inclination: 63.4057°
perigee height: 532 km
apogee height: 1462 km
right ascension of ascending node: 16.8520°
argument of perigee: 358.6818°
revolutions per day: 13.70683510
mean anomaly at epoch: 1.2533°
orbit number at epoch: 70670

The dashed part of the orbit path shows where the satellite is in the earth's shadow,  

DLR